Lapse_Rate
9.6 9.6 9.6 9.6 9.6 9.5 9.4 9.0 8.1 7.6 8.0 8.5 7.4 4.9 1.5 0.8 -0.6 0.1 -0.1 3.9 4.0 4.7 6.1 5.9 5.5 5.4 5.6 5.3 5.8 6.5 6.4 6.6 7.1 7.2 7.5 7.5 7.7 8.2
9.6 9.3 9.5 9.6 9.7 9.6 9.5 9.3 9.3 8.0 7.6 8.7 8.2 5.7 3.4 2.9 3.8 1.4 0.4 -0.2 3.3 4.5 5.1 4.6 4.7 3.8 3.7 4.1 5.4 5.9 5.9 5.8 6.6 6.9 7.3 7.3 7.5 7.8
9.4 9.3 9.2 9.5 9.5 9.6 9.5 9.3 9.3 8.8 8.2 8.6 8.3 7.0 4.5 5.0 5.0 3.9 3.4 1.0 1.3 3.6 4.1 4.1 4.0 3.4 3.7 4.0 4.3 4.7 4.7 5.4 6.1 6.6 6.8 7.3 7.7 8.2
9.1 9.1 9.0 9.4 9.2 9.3 9.4 8.8 9.0 9.3 8.6 8.5 8.5 7.2 5.7 6.2 6.7 4.7 3.6 4.0 1.8 3.5 3.9 3.6 4.1 3.2 2.8 3.8 3.9 4.3 4.8 4.9 5.6 6.1 5.6 6.8 7.3 7.9
9.0 8.9 9.0 9.1 9.0 9.5 9.4 9.5 9.4 9.4 9.3 8.8 8.6 8.2 7.0 7.2 6.1 4.9 4.8 3.3 4.2 1.2 3.4 3.7 3.6 3.3 3.3 3.5 3.9 3.9 4.0 4.4 4.4 5.0 5.1 5.0 5.4 6.3
9.0 9.0 9.0 9.0 8.9 9.0 9.1 9.2 9.5 9.4 9.0 8.6 8.7 8.6 8.0 7.8 7.2 5.2 4.7 4.7 3.7 1.6 3.6 4.1 3.4 3.0 3.2 3.3 3.7 3.2 2.8 2.6 4.0 4.2 4.1 4.1 4.1 4.6
8.9 8.8 8.9 9.1 9.1 9.2 9.4 9.3 9.2 9.1 9.0 8.5 8.6 8.6 8.4 7.8 7.3 6.5 4.7 4.5 3.6 4.4 3.2 5.1 4.8 4.0 4.0 2.7 3.6 3.1 2.7 3.4 3.2 4.0 3.7 4.1 3.8 4.1
9.0 9.2 9.2 9.3 9.2 9.0 9.0 9.0 9.1 8.8 8.5 8.6 8.5 8.6 8.4 8.3 8.1 6.7 6.0 5.9 6.0 4.9 2.1 1.0 5.0 5.5 5.2 4.7 4.3 3.4 2.9 3.3 3.2 2.8 3.3 3.4 3.3 3.3
8.2 9.0 9.2 9.4 9.2 9.0 9.2 9.1 9.0 8.7 9.0 8.9 8.6 8.3 8.3 8.8 8.2 7.6 6.8 6.1 5.1 5.5 4.7 2.8 1.8 5.6 5.8 5.3 2.8 2.3 2.5 2.9 2.5 3.0 3.0 2.8 2.6 2.3
9.0 8.8 8.7 9.0 9.2 9.0 9.0 8.9 8.9 9.2 9.3 9.1 8.9 8.9 8.7 8.6 7.7 7.4 6.7 5.9 5.0 5.3 6.0 5.0 3.1 2.9 6.0 5.9 2.0 1.4 1.9 2.2 2.5 2.8 2.4 2.1 2.4 2.7
9.0 9.1 9.1 9.2 9.2 9.2 8.3 8.6 8.9 9.1 9.6 9.4 9.2 9.3 9.3 9.3 9.1 8.3 7.1 7.2 6.5 5.5 5.4 5.6 2.7 2.0 5.6 5.1 3.2 1.3 1.6 1.9 2.1 2.0 2.0 2.1 2.0 2.5
7.8 8.5 8.4 8.8 9.0 8.8 8.3 7.8 8.4 8.8 9.1 9.1 9.2 9.2 9.2 9.1 8.9 8.4 7.8 7.4 6.9 5.9 5.0 5.5 3.8 4.5 2.1 1.6 4.1 2.1 2.8 1.8 1.6 1.7 2.1 1.8 2.0 3.6
7.1 7.6 7.5 7.4 7.6 8.7 8.1 8.0 8.4 9.2 9.1 9.2 9.1 9.1 9.4 9.3 9.4 9.3 8.6 8.4 7.7 6.8 5.9 3.9 2.2 4.0 3.4 0.1 -0.5 3.0 3.5 3.1 2.8 1.9 1.5 1.2 1.1 3.7
7.4 7.4 7.2 7.2 7.4 8.1 7.9 7.7 7.9 7.9 8.6 8.6 8.7 8.5 8.5 9.0 9.2 9.1 9.1 8.7 8.1 7.8 7.3 5.3 3.8 4.7 4.4 4.6 1.4 -1.6 4.0 3.7 2.3 3.0 2.9 2.5 1.6 2.1
7.6 7.4 7.1 7.1 7.4 7.6 7.4 7.8 8.8 8.2 7.9 7.5 6.7 6.4 7.7 7.5 7.9 8.6 8.7 8.6 8.3 7.2 7.3 6.6 5.4 4.6 4.9 4.7 4.3 1.0 3.5 3.6 2.8 2.5 3.0 2.8 2.6 2.9
7.8 7.1 6.9 6.8 6.7 6.8 7.2 6.6 8.0 8.3 8.3 8.3 8.3 7.4 6.8 7.7 7.9 8.1 7.4 7.5 7.4 7.1 6.1 5.7 5.5 4.4 5.1 5.0 4.3 3.4 2.2 1.1 2.7 3.0 2.7 3.2 3.4 3.2
7.4 6.9 7.0 7.0 7.0 6.9 6.6 6.4 5.6 5.5 6.3 6.7 7.3 7.8 8.2 8.1 7.9 7.8 7.6 7.5 7.4 7.4 7.1 6.2 5.4 5.6 4.5 3.8 4.2 3.0 3.3 0.6 2.3 2.2 3.0 3.2 2.7 2.4
7.1 6.9 7.0 7.0 7.1 7.1 7.1 6.8 6.5 6.3 6.4 6.4 6.3 6.5 6.5 6.5 6.9 7.5 7.6 7.6 7.6 7.5 7.1 6.9 6.4 6.2 5.8 4.3 4.0 4.4 3.7 3.7 0.3 2.0 2.9 2.9 1.9 2.0
6.8 6.9 6.9 6.8 6.7 6.8 7.0 7.1 7.0 6.9 6.7 6.6 6.7 6.8 6.8 7.1 7.3 7.5 7.2 7.4 7.6 7.6 7.4 6.9 6.7 6.6 6.7 6.3 3.0 3.5 4.7 2.9 1.8 1.4 2.9 3.2 1.9 0.5
7.6 6.7 6.6 6.4 6.4 6.4 6.4 6.7 6.7 6.9 6.9 7.1 7.3 7.5 7.4 7.7 7.7 7.6 7.7 7.6 7.9 7.5 7.4 7.0 6.6 6.6 6.5 6.7 5.6 3.1 0.3 2.4 2.9 3.2 0.4 -2.4 -2.4 -1.9
7.7 6.6 6.4 6.2 6.0 6.0 6.1 6.2 6.3 6.4 6.9 7.1 7.4 7.8 8.0 8.1 7.9 8.0 7.7 8.1 8.1 7.7 7.4 7.4 7.4 7.5 5.8 5.1 4.7 3.9 1.2 0.2 2.1 1.6 -0.4 -0.3 -1.1 -1.5
7.5 6.8 6.3 5.9 5.9 5.9 6.1 6.0 6.1 6.2 6.4 6.5 6.8 7.4 7.7 7.9 7.8 7.9 8.0 7.4 7.9 8.0 7.8 7.9 7.6 7.1 6.4 6.5 6.3 5.6 2.8 0.7 0.9 0.5 0.2 0.2 0.3 0.6
6.9 6.7 6.4 6.1 5.9 6.0 6.1 6.2 6.3 6.3 6.3 6.8 7.3 7.4 7.4 7.5 8.0 8.1 8.2 8.1 7.7 7.8 7.8 7.9 7.4 7.3 7.2 6.8 6.4 5.5 2.7 2.5 1.0 0.3 -0.8 -0.3 0.3 -1.0
Wind_Speed
14 15 13 12 11 12 11 10 10 11 13 8 5 4 11 14 21 19 16 22 37 39 39 39 37 38 44 41 39 37 36 36 34 33 33 33 33 32
12 15 14 12 13 12 11 11 11 11 14 9 9 12 13 10 21 18 21 25 29 37 36 33 36 34 29 38 35 34 34 35 35 35 35 33 33 32
16 15 17 17 12 12 12 11 11 10 13 13 13 10 13 14 12 14 20 14 15 30 28 30 31 34 34 36 33 33 33 35 36 37 36 35 35 32
17 17 17 12 17 15 11 15 13 14 11 18 12 11 11 10 11 14 11 13 12 21 30 29 32 32 31 38 38 37 38 38 37 37 37 36 35 34
17 17 17 16 16 13 14 13 12 11 12 12 12 9 9 9 11 10 12 13 10 25 29 31 28 30 35 38 34 35 34 36 37 38 37 36 36 35
17 17 17 17 17 16 15 16 14 13 12 11 12 10 8 7 8 8 10 7 11 13 18 24 26 28 33 36 40 42 41 41 38 39 38 35 35 35
17 17 17 20 24 21 12 14 15 13 10 9 11 11 8 7 6 5 8 10 12 11 9 14 14 13 16 28 32 39 38 42 41 38 36 36 35 35
16 16 16 21 21 26 27 28 22 13 14 10 10 12 12 8 7 3 4 7 6 2 11 9 10 15 15 15 32 36 39 43 40 40 40 39 39 39
17 16 15 12 19 16 22 26 27 30 28 16 15 13 13 12 10 9 5 5 7 9 9 7 6 11 16 16 27 32 38 42 41 42 40 38 35 35
17 16 16 17 16 16 16 16 16 16 17 13 16 14 12 10 9 7 7 6 9 7 7 5 7 11 14 15 24 30 36 38 39 42 40 39 37 37
15 16 17 16 21 25 16 17 17 15 18 24 25 25 24 26 20 10 9 8 8 7 2 4 6 10 11 13 13 31 33 35 38 38 40 39 38 39
12 15 22 20 24 24 15 15 16 15 12 13 12 16 20 19 24 14 10 10 7 5 5 5 2 5 4 1 11 15 17 32 35 37 39 39 36 20
8 10 10 22 24 26 25 15 16 16 16 13 11 10 10 12 10 11 13 10 10 9 5 6 5 8 3 5 2 10 13 13 16 16 32 35 35 27
8 7 6 17 21 23 19 22 24 22 12 10 10 10 10 9 9 10 10 10 10 12 7 6 4 4 6 6 4 3 12 12 13 13 15 23 31 35
7 12 16 15 14 11 15 25 23 10 10 10 10 11 9 8 11 8 8 11 10 6 6 9 10 8 8 5 4 2 4 10 11 11 12 12 13 11
11 8 10 10 10 9 8 8 12 10 10 10 9 7 6 8 7 6 6 5 5 5 5 8 11 11 6 7 6 5 3 3 10 10 10 12 13 13
10 6 6 6 6 6 6 6 5 4 3 4 6 7 7 8 8 7 7 7 8 7 7 4 6 10 9 8 4 2 4 1 6 11 10 10 11 14
7 6 6 6 6 7 6 6 5 6 4 4 5 6 7 5 7 7 7 8 10 8 8 7 5 4 5 7 12 9 3 5 1 5 10 11 8 9
6 7 7 7 7 7 6 6 6 6 7 6 6 7 7 7 9 9 9 8 9 10 8 6 5 6 8 9 3 18 9 4 2 2 6 9 10 9
8 8 8 7 7 7 7 7 7 6 6 6 7 7 7 8 8 9 9 10 10 9 8 7 8 10 12 9 3 2 11 6 7 7 2 2 4 13
9 8 8 8 8 8 8 7 8 7 8 7 7 7 8 8 9 9 10 17 16 9 10 11 11 15 4 2 5 4 2 4 8 7 5 4 2 1
9 9 8 8 8 8 8 8 8 8 8 7 8 8 8 8 10 10 10 10 11 11 11 9 7 8 8 10 12 6 4 2 6 10 7 7 5 8
9 9 8 8 8 8 8 8 8 8 9 8 8 9 9 9 10 11 11 11 11 11 11 11 8 8 11 11 13 7 8 7 4 4 3 5 3 7
Wind_Direction
266 266 265 266 263 264 262 262 272 283 292 281 306 303 359 341 338 334 326 223 201 209 213 211 208 210 202 197 199 198 197 196 196 195 199 197 200 203
262 262 263 262 263 263 259 253 255 259 275 289 278 298 317 322 314 332 311 304 225 205 209 205 205 198 198 195 196 194 194 193 192 195 199 196 198 200
263 261 262 261 261 261 262 263 259 261 269 277 285 293 296 305 312 312 303 317 309 205 207 207 201 196 191 193 191 190 188 194 193 195 197 200 201 201
260 255 255 256 256 251 252 253 255 262 267 279 283 291 287 301 295 297 323 295 289 253 205 203 208 194 188 195 191 194 189 190 192 194 196 201 201 200
257 259 260 257 257 257 257 257 258 262 264 270 277 287 299 305 296 299 299 312 296 315 203 202 201 198 194 194 193 190 189 191 191 191 197 196 198 197
254 255 255 253 252 253 255 256 257 257 260 266 276 274 272 288 284 294 307 316 307 312 243 199 197 196 201 198 199 199 196 190 191 192 192 193 191 194
253 250 249 249 249 247 252 253 253 257 260 262 273 275 272 285 290 313 310 318 310 302 260 200 197 194 200 201 203 197 192 193 190 194 191 192 188 191
248 246 245 250 253 251 248 248 250 256 254 258 267 271 271 281 287 287 324 303 319 331 0 329 227 207 202 204 205 198 191 194 191 187 189 193 193 191
243 245 246 241 243 242 250 251 248 248 247 257 265 271 285 287 291 290 262 262 277 301 324 302 336 229 208 202 197 193 195 195 191 194 191 190 193 192
253 248 244 248 244 241 243 247 249 251 250 255 255 262 268 278 281 294 295 289 286 283 264 277 314 317 212 200 185 186 194 196 196 192 192 192 195 198
249 248 246 248 247 246 241 245 247 248 251 249 254 260 262 262 255 264 270 278 287 287 318 317 298 299 231 190 184 181 188 193 193 192 192 191 194 197
257 249 247 243 243 245 243 242 248 249 247 250 253 253 250 251 252 244 250 246 247 289 218 225 348 6 296 194 177 183 189 193 195 195 194 192 191 199
262 251 244 246 248 246 237 229 237 245 246 246 249 252 242 238 237 229 232 235 237 241 277 347 316 312 256 322 22 179 191 191 196 196 192 189 186 193
330 322 300 273 255 246 246 247 239 237 242 245 242 244 251 245 226 227 229 233 239 240 243 260 286 314 297 330 302 334 190 186 189 196 198 194 192 198
327 323 319 318 312 282 285 244 241 236 239 236 232 237 240 256 263 252 240 236 243 256 263 246 246 257 255 248 270 288 212 187 186 185 193 185 189 201
341 327 327 329 320 312 306 315 237 232 233 239 245 245 241 236 245 254 245 245 257 264 251 243 249 270 254 242 246 262 270 210 175 184 186 195 192 200
343 334 336 342 340 339 334 332 335 337 288 252 246 246 243 241 240 243 243 256 255 256 260 246 227 233 246 272 289 228 272 341 215 174 176 189 196 194
345 342 339 340 338 336 333 330 325 318 307 289 267 260 255 260 256 247 240 229 245 248 245 248 232 225 220 247 240 263 251 253 237 206 186 191 193 198
348 341 335 335 332 329 326 322 315 311 305 282 272 264 262 261 263 254 245 239 231 240 235 232 234 230 242 232 192 207 227 196 159 192 211 197 188 196
348 335 330 329 326 324 321 316 311 303 295 284 271 263 258 257 257 256 259 246 233 230 235 223 227 232 228 245 222 191 200 181 184 197 141 84 25 94
337 332 327 322 320 317 314 310 304 298 294 289 278 268 258 250 248 248 251 259 259 246 236 223 230 235 244 230 256 206 223 253 175 164 141 112 113 128
331 327 323 318 315 312 310 307 303 298 293 287 278 270 263 258 256 251 243 246 245 248 245 245 217 210 224 230 238 225 163 91 82 106 65 87 175 179
327 324 319 315 310 310 308 306 303 299 291 283 281 275 266 259 256 255 251 242 238 245 244 237 227 218 226 234 221 227 166 154 156 133 48 31 5 110